Weather History for Fayetteville, AR

Change the Weather History Date:

Thursday, August 8, 2013

  Actual Average Record
Temperature  
Mean Temperature 78 °F 78 °F  
Max Temperature 87 °F 90 °F 102 °F (2011)
Min Temperature 68 °F 66 °F 48 °F (1989)
Cooling Degree Days 13 13  
Month to date cooling degree days 115 104  
Year to date cooling degree days 896 853  
Since 1 June cooling degree days 760 740  
Growing Degree Days 28 (Base 50)    
Moisture  
Dew Point 71 °F    
Average Humidity 81    
Maximum Humidity 100    
Minimum Humidity 61    
Precipitation  
Precipitation 1.19 in 0.10 in 1.19 in (2013)
Month to date precipitation 2.12 0.80  
Year to date precipitation 30.37 29.45  
Sea Level Pressure  
Sea Level Pressure 29.91 in    
Wind  
Wind Speed 5 mph (NE)    
Max Wind Speed 40 mph    
Max Gust Speed 48 mph    
Visibility 8 miles    
Events Rain , Thunderstorm    
T = Trace of Precipitation, MM = Missing Value Source: NWS Daily Summary

Daily Weather History Graph

Daily Weather History Graph

Search for Another Location

Airport:

Trip Planner

Search our weather history database for the weather conditions in past years. The results will help you decide how hot, cold, wet, or windy it might be!

Date:

Astronomy

Aug. 08, 2013 Rise Set
Actual Time 6:29 AM CDT 8:14 PM CDT
Civil Twilight 6:02 AM CDT 8:41 PM CDT
Nautical Twilight 5:28 AM CDT 9:15 PM CDT
Astronomical Twilight 4:53 AM CDT 9:50 PM CDT
Moon 8:12 AM CDT (8/8) 8:59 PM CDT (8/8)
Length of Visible Light 14h 39m
Length of Day
13h 44m
Waxing Crescent, 3% of the Moon is Illuminated
Aug 8
Waxing Crescent
Aug 14
First Quarter
Aug 20
Full
Aug 28
Last Quarter
Sep 5
New

Hourly Weather History & Observations

Time (CDT) Temp. Heat Index Dew Point Humidity Pressure Visibility Wind Dir Wind Speed Gust Speed Precip Events Conditions
12:17 AM 78.8 °F - 75.2 °F 89% 29.91 in 10.0 mi Calm Calm - N/A   Clear
12:53 AM 77.0 °F - 75.9 °F 96% 29.85 in 10.0 mi Calm Calm - N/A   Clear
1:53 AM 78.1 °F - 75.0 °F 90% 29.84 in 10.0 mi East 5.8 mph - N/A   Overcast
2:53 AM 78.1 °F - 75.0 °F 90% 29.81 in 10.0 mi East 5.8 mph - N/A   Mostly Cloudy
3:24 AM 78.8 °F - 75.2 °F 89% 29.87 in 10.0 mi Calm Calm - 0.00 in Rain , Thunderstorm Light Rain
3:53 AM 75.9 °F - 75.0 °F 97% 29.84 in 5.0 mi NNW 15.0 mph - 0.02 in Rain , Thunderstorm Thunderstorms and Rain
4:00 AM 73.4 °F - 73.4 °F 100% 29.88 in 5.0 mi NNW 20.7 mph 27.6 mph 0.02 in Rain , Thunderstorm Light Thunderstorms and Rain
4:03 AM 71.6 °F - 71.6 °F 100% 29.88 in 2.5 mi NW 40.3 mph 48.3 mph 0.09 in Rain , Thunderstorm Heavy Thunderstorms and Rain
4:11 AM 69.8 °F - 68.0 °F 94% 29.92 in 1.2 mi NNW 19.6 mph 48.3 mph 0.21 in Rain , Thunderstorm Heavy Thunderstorms and Rain
4:22 AM 69.8 °F - 68.0 °F 94% 29.93 in 3.0 mi NW 11.5 mph - 0.29 in Rain , Thunderstorm Heavy Thunderstorms and Rain
4:32 AM 69.8 °F - 69.8 °F 100% 29.94 in 5.0 mi NNW 8.1 mph - 0.31 in Rain , Thunderstorm Thunderstorms and Rain
4:39 AM 69.8 °F - 69.8 °F 100% 29.93 in 1.8 mi NNE 4.6 mph - 0.46 in Rain , Thunderstorm Heavy Thunderstorms and Rain
4:48 AM 69.8 °F - 69.8 °F 100% 29.95 in 2.0 mi NW 8.1 mph - 0.55 in Rain , Thunderstorm Heavy Thunderstorms and Rain
4:49 AM 69.1 °F - 69.1 °F 100% 29.90 in 2.0 mi NW 8.1 mph - 0.56 in Rain , Thunderstorm Heavy Thunderstorms and Rain
4:57 AM 69.8 °F - 69.8 °F 100% 29.94 in 3.0 mi NNE 4.6 mph - 0.07 in Rain , Thunderstorm Heavy Rain
5:00 AM 69.8 °F - 69.8 °F 100% 29.94 in 1.8 mi Calm Calm - 0.13 in Rain , Thunderstorm Heavy Rain
5:23 AM 69.8 °F - 69.8 °F 100% 29.93 in 2.0 mi ENE 8.1 mph - 0.41 in Rain , Thunderstorm Heavy Thunderstorms and Rain
5:28 AM 69.8 °F - 68.0 °F 94% 29.93 in 5.0 mi ENE 8.1 mph - 0.41 in Rain , Thunderstorm Light Thunderstorms and Rain
5:53 AM 69.1 °F - 68.0 °F 96% 29.89 in 10.0 mi East 5.8 mph - 0.42 in Rain , Thunderstorm Light Rain
6:07 AM 69.8 °F - 66.2 °F 88% 29.95 in 10.0 mi Calm Calm - 0.00 in Rain Light Rain
6:15 AM 69.8 °F - 66.2 °F 88% 29.97 in 10.0 mi Calm Calm - 0.00 in Rain , Thunderstorm Light Rain
6:48 AM 69.8 °F - 68.0 °F 94% 30.00 in 4.0 mi NE 5.8 mph - 0.06 in Rain , Thunderstorm Rain
6:53 AM 68.0 °F - 68.0 °F 100% 29.97 in 4.0 mi NNE 4.6 mph - 0.08 in Rain , Thunderstorm Heavy Thunderstorms and Rain
7:06 AM 69.8 °F - 68.0 °F 94% 30.01 in 10.0 mi ENE 6.9 mph - 0.01 in Rain Light Rain
7:37 AM 69.8 °F - 66.2 °F 88% 30.00 in 10.0 mi ENE 8.1 mph - 0.01 in   Overcast
7:44 AM 69.8 °F - 66.2 °F 88% 30.00 in 10.0 mi ENE 4.6 mph - 0.01 in Rain Light Rain
7:53 AM 69.1 °F - 68.0 °F 96% 29.96 in 10.0 mi ENE 5.8 mph - 0.01 in   Overcast
8:53 AM 70.0 °F - 68.0 °F 93% 29.94 in 10.0 mi ENE 6.9 mph - 0.03 in   Overcast
9:53 AM 71.1 °F - 68.0 °F 90% 29.95 in 10.0 mi Calm Calm - N/A   Overcast
10:53 AM 73.0 °F - 68.0 °F 84% 29.90 in 10.0 mi East 5.8 mph - 0.05 in Rain Light Rain
11:53 AM 77.0 °F - 71.1 °F 82% 29.89 in 10.0 mi Calm Calm - 0.00 in   Clear
12:53 PM 81.0 °F 84.1 °F 69.1 °F 67% 29.88 in 10.0 mi Variable 3.5 mph - N/A   Clear
1:53 PM 86.0 °F 92.2 °F 72.0 °F 63% 29.87 in 10.0 mi South 6.9 mph - N/A   Clear
2:53 PM 87.1 °F 94.5 °F 73.0 °F 63% 29.87 in 10.0 mi South 9.2 mph - N/A   Clear
3:53 PM 84.9 °F 90.7 °F 72.0 °F 65% 29.88 in 10.0 mi SW 9.2 mph - N/A   Scattered Clouds
4:53 PM 84.0 °F 89.0 °F 71.1 °F 65% 29.88 in 10.0 mi SSE 3.5 mph - N/A   Partly Cloudy
5:53 PM 84.0 °F 91.2 °F 73.9 °F 72% 29.87 in 10.0 mi North 5.8 mph - N/A   Clear
6:53 PM 80.1 °F 84.2 °F 73.0 °F 79% 29.87 in 10.0 mi Variable 3.5 mph - N/A   Clear
7:53 PM 78.1 °F - 73.0 °F 84% 29.88 in 10.0 mi Calm Calm - 0.01 in Rain Light Rain
8:53 PM 75.9 °F - 73.0 °F 91% 29.91 in 10.0 mi Calm Calm - 0.00 in Rain Light Rain
9:53 PM 75.9 °F - 73.0 °F 91% 29.92 in 10.0 mi Calm Calm - 0.01 in   Partly Cloudy
10:53 PM 75.0 °F - 73.0 °F 94% 29.93 in 10.0 mi Calm Calm - N/A   Overcast
11:53 PM 73.0 °F - 72.0 °F 96% 29.94 in 10.0 mi Calm Calm - N/A   Clear